CZ-6A DEB

Satellite information

Favourite Embed

Satellite Type and Status

DEBRISIN ORBIT

Key statistics

Satellite CZ-6A DEB at a glance.

Uptime

1077

Days in orbit

Revolutions

≈ 14.1

Per day

Orbit

SSO

Sun Synchronous Orbit

Inclination

98.8

Latest

Satellite identification and parameters

Extended collection of information and parameters for CZ-6A DEB.

Object identification

Identified? True

Debris? True

Object name: CZ-6A DEB

International designator: 2022-151AEK

Object number (NORAD): 56611

Object ID (CCSDS): 56611

Country: PEOPLES REPUBLIC OF CHINA (PRC)

Current information (Y/N): Y

RCS size: SMALL

Orbital parameters

Period: 102.089 minutes

Inclination: 98.8148 deg

SMA: 7235.68 km

Apoapsis: 887.445 km

Periapsis: 827.645 km

RAAN: 291.5203 deg

Eccentricy: 0.00413236

Argument of periapsis: 292.3648 deg

Mean anomaly: 67.3146 deg

Mean motion: 14.10534563 rev/day

Mean motion (dot): 0.00000424 rev/day2

B* drag term: 0.00026052954 1/REarth

Two-line elements (TLE)

Creation date: Oct. 21, 2025, 6:24 p.m.

Reference frame: TEME

Reference center: EARTH

Epoch: Oct. 21, 2025, 6:32 a.m. UTC

TLE line 0: 0 CZ-6A DEB

TLE line 1: 1 56611U 22151AEK 25294.27227271 .00000424 00000-0 26053-3 0 9991

TLE line 2: 2 56611 98.8148 291.5203 0041324 292.3648 67.3146 14.10534563128267

Live tracking on map

Real-time ground track for satellite CZ-6A DEB.

In-orbit conjunctions

A list of the most updated potential collisions computed for object CZ-6A DEB.

Target Orbit TCA Probability of collision Miss distance Type
FENGYUN 1C DEB SSO 2025-09-30 10:54:19 0.0001767573 66.0 (m) DEBRIS
CZ-6A DEB SSO 2025-07-16 10:13:13 0.0001844184 31.0 (m) DEBRIS
COSMOS 2528 DEB LEO 2025-05-03 03:35:33 0.0001144211 479.0 (m) DEBRIS
DELTA 1 DEB SSO 2025-03-30 12:49:13 0.0001021622 114.0 (m) DEBRIS
THORAD AGENA D DEB SSO 2024-12-12 20:04:29 0.000180915 238.0 (m) DEBRIS

Associated space launch

Chinese satellite reported for atmospheric/ocean/environmental/spatial parameter research purposes, details TBD.

CZ-6A DEB was lifted into orbit during the mission ‘Long March 6A | Yunhai 3’, on board a Long March 6A space rocket.

The launch took place on Nov. 11, 2022, 10:52 p.m. from Launch Complex 9A.

For more information about the launch, click the button.

Launch to space Long March 6A | Yunhai 3
Long March 6A | Yunhai 3

Agency: N/A

Status: Launch Successful

Launch date: Nov. 11, 2022, 10:52 p.m. UTC

Rocket: Long March 6A

Launch pad: Launch Complex 9A

Location: Taiyuan Satellite Launch Center, People's Republic of China

...

Latest news about this satellite

There are no fresh news available about this satellite. Check back as we update our databases every day.


Newsletter sign-up

Weekly statistics, charts and insights to help you stay on top of the space industry.